Location: Cedarville Mobile Home Park
(38.5815°N, 75.0860°W)
Time: 02:25:48
(UTC+00:00)

ACS3 Solar Sail - Pass Details

Date: 17 October 2024
Orbit: 961 x 1022 km, 97.5° (Epoch: 03 November)

Event Time Altitude Azimuth Distance (km) Brightness Sun altitude
Exits shadow 00:10:57 40° 75° (ENE) 1,468 2.2 -22.4°
Maximum altitude 00:11:09 40° 70° (ENE) 1,465 2.3 -22.5°
Drops below altitude 10° 00:17:03 10° 3° (N) 2,831 4.3 -23.6°
Sets 00:19:41 0° 357° (N) 3,784 5.0 -24.1°
